Printer-friendly version

IAU Minor Planet Center

Minor Planet Center

MPEC 2006-Y21 : 2006 UX184

The following Minor Planet Electronic Circular may be linked-to from your own Web pages, but must not otherwise be redistributed electronically.


Read MPEC 2006-Y20 Read MPEC 2006-Y22


M.P.E.C. 2006-Y21                                Issued 2006 Dec. 19, 17:39 UT

     The Minor Planet Electronic Circulars contain information on unusual
         minor planets and routine data on comets.  They are published
   on behalf of Commission 20 of the International Astronomical Union by the
          Minor Planet Center, Smithsonian Astrophysical Observatory,
                          Cambridge, MA 02138, U.S.A.

             Prepared using the Tamkin Foundation Computer Network

                              MPC@CFA.HARVARD.EDU
          URL http://cfa-www.harvard.edu/iau/mpc.html  ISSN 1523-6714

                                  2006 UX184

Additional Observations:
     K06UI4X  C2006 10 27.09845 01 36 25.56 -05 19 51.6          21.9 R EY021950
     K06UI4X  C2006 11 13.99403 01 33 55.25 -05 22 27.3          22.7 V EY021493
     K06UI4X  C2006 11 14.87927 01 33 48.35 -05 22 26.1          22.5 V EY021493
     K06UI4X  C2006 11 14.96109 01 33 47.72 -05 22 26.0          22.7 V EY021493
     K06UI4X  C2006 11 18.92789 01 33 17.76 -05 22 09.3          22.4 V EY021620
     K06UI4X  C2006 12 16.87218 01 30 40.35 -05 11 13.3          22.0 V EY021J86
     K06UI4X  C2006 12 16.88631 01 30 40.32 -05 11 12.8          22.0 V EY021J86
     K06UI4X  C2006 12 17.85983 01 30 36.88 -05 10 32.9          22.1 V EY021J86
     K06UI4X  C2006 12 17.87396 01 30 36.81 -05 10 32.2          22.1 V EY021J86

Observer details:
493 Calar Alto.  Observer R. Duffard.  Measurer R. Stoss.  2.2-m reflector
    + CCD.
620 Observatorio Astronomico de Mallorca.  Observers J. Rodriguez, A. Garcia.
    Measurer R. Stoss.  0.35-m f/9 Schmidt-Cassegrain + CCD.
950 La Palma.  Observers J. L. Ortiz, A. Mora.  Measurer R. Stoss.  2.5-m
    Isaac Newton Telescope + CCD.
J86 Sierra Nevada Observatory.  Observers J. L. Ortiz, V. Casanova.  Measurer
    R. Stoss.  1.50-m f/8.0 Ritchey-Chretien + CCD.

Orbital elements:
2006 UX184
Epoch 2006 Nov. 1.0 TT = JDT 2454040.5                  MPC
M 344.76707              (2000.0)            P               Q
n   0.00411441     Peri.   22.65374     +0.51781709     -0.76343359
a  38.5713333      Node    39.47409     +0.66195719     +0.07170128
e   0.4761844      Incl.   37.39131     +0.54192080     +0.64189414
P 240              H    8.4           G   0.15
From 21 observations 2006 Oct. 22-Dec. 17.

Ephemeris:
2006 UX184               a,e,i = 38.57, 0.48, 37                 q = 20.204
Date    TT    R. A. (2000) Decl.     Delta      r     Elong.  Phase     V
2006 12 11    01 31.07   -05 14.8   21.822   22.322   119.4     2.2    22.1
2006 12 21    01 30.45   -05 08.3   21.964   22.312   109.5     2.4    22.1
2006 12 31    01 30.10   -04 59.7   22.116   22.301    99.6     2.5    22.1
2007 01 10    01 30.03   -04 49.4   22.274   22.291    89.7     2.5    22.2
2007 01 20    01 30.26   -04 37.5   22.431   22.280    79.9     2.5    22.2
2007 01 30    01 30.77   -04 24.1   22.583   22.270    70.2     2.4    22.2
2007 02 09    01 31.55   -04 09.7   22.726   22.259    60.7     2.2    22.2
2007 02 19    01 32.58   -03 54.4   22.854   22.249    51.2     2.0    22.2
2007 03 01    01 33.82   -03 38.5   22.965   22.238    42.0     1.7    22.2
2007 03 11    01 35.26   -03 22.4   23.054   22.228    33.0     1.4    22.1

Brian G. Marsden             (C) Copyright 2006 MPC           M.P.E.C. 2006-Y21

Read MPEC 2006-Y20 Read MPEC 2006-Y22


Our Web policy. Index to the CBAT/MPC/ICQ pages.


Valid HTML 4.01!